Location: Mococo
(38.0255°N, 122.1161°W)
Time: 03:39:58
(UTC+00:00)

IGS 5A - Pass Details

Date: 13 February 2026
Orbit: 551 x 554 km, 97.4° (Epoch: 8 January)

Event Time Altitude Azimuth Distance (km) Brightness Sun altitude
Rises 13:49:50 0° 12° (NNE) 2,735 7.0 -14.5°
Reaches altitude 10° 13:51:58 10° 13° (NNE) 1,836 6.1 -14.1°
Maximum altitude 13:55:57 84° 101° (E) 561 3.4 -13.3°
Drops below altitude 10° 13:59:54 10° 191° (S) 1,823 5.9 -12.5°
Sets 14:02:01 0° 191° (SSW) 2,712 6.8 -12.1°
